Time,TemperatureF,DewpointF,PressureIn,WindDirection,WindDirectionDegrees,WindSpeedMPH,WindSpeedGustMPH,Humidity,HourlyPrecipIn,Conditions,Clouds,dailyrainin,SolarRadiationWatts/m^2,SoftwareType,DateUTC
2013-05-30 00:01:00,53.0,49.0,30.07,WSW,237,4.0,11.0,86,-99.99,,,0.04,0.120000,,2013-05-30 07:01:00,
2013-05-30 00:11:00,53.0,49.0,30.07,WSW,237,4.0,11.0,86,-99.99,,,0.04,0.120000,,2013-05-30 07:11:00,
2013-05-30 00:42:00,52.0,48.0,30.11,West,263,6.0,13.0,85,-99.99,,,0.04,0.120000,,2013-05-30 07:42:00,
2013-05-30 00:52:00,52.0,48.0,30.11,West,263,6.0,13.0,85,-99.99,,,0.04,0.120000,,2013-05-30 07:52:00,
2013-05-30 01:02:00,52.0,48.0,-100.00,West,263,6.0,13.0,85,-99.99,,,0.04,0.120000,,2013-05-30 08:02:00,
2013-05-30 01:11:00,52.0,48.0,-100.00,West,263,6.0,13.0,85,-99.99,,,0.04,0.120000,,2013-05-30 08:11:00,
2013-05-30 01:32:00,51.0,47.0,30.12,West,264,6.0,9.0,86,-99.99,,,0.04,0.230000,,2013-05-30 08:32:00,
2013-05-30 01:42:00,51.0,47.0,30.12,West,264,6.0,9.0,86,-99.99,,,0.04,0.230000,,2013-05-30 08:42:00,
2013-05-30 01:53:00,51.0,47.0,30.12,West,264,6.0,9.0,86,-99.99,,,0.04,0.230000,,2013-05-30 08:53:00,
2013-05-30 02:01:00,51.0,47.0,-100.00,West,264,6.0,9.0,86,-99.99,,,0.04,0.230000,,2013-05-30 09:01:00,
2013-05-30 02:11:00,51.0,47.0,30.12,West,264,6.0,9.0,86,-99.99,,,0.04,0.230000,,2013-05-30 09:11:00,
2013-05-30 02:42:00,51.0,48.0,30.13,West,259,4.0,7.0,89,-99.99,,,0.04,0.230000,,2013-05-30 09:42:00,
2013-05-30 02:53:00,51.0,48.0,30.13,West,259,4.0,7.0,89,-99.99,,,0.04,0.230000,,2013-05-30 09:53:00,
2013-05-30 03:02:00,51.0,48.0,-100.00,West,259,4.0,7.0,89,-99.99,,,0.04,0.230000,,2013-05-30 10:02:00,
2013-05-30 03:12:00,51.0,48.0,30.13,West,259,4.0,7.0,89,-99.99,,,0.04,0.230000,,2013-05-30 10:12:00,
2013-05-30 03:32:00,50.0,48.0,30.13,WSW,257,5.0,11.0,93,-99.99,,,0.04,0.230000,,2013-05-30 10:32:00,
2013-05-30 03:42:00,50.0,48.0,30.13,WSW,257,5.0,11.0,93,-99.99,,,0.04,0.230000,,2013-05-30 10:42:00,
2013-05-30 03:52:00,50.0,48.0,30.13,WSW,257,5.0,11.0,93,-99.99,,,0.04,0.230000,,2013-05-30 10:52:00,
2013-05-30 04:03:00,50.0,48.0,30.13,WSW,257,5.0,11.0,93,-99.99,,,0.04,0.230000,,2013-05-30 11:03:00,
2013-05-30 04:12:00,50.0,48.0,30.13,WSW,257,5.0,11.0,93,-99.99,,,0.04,0.230000,,2013-05-30 11:12:00,
2013-05-30 04:32:00,51.0,48.0,30.14,WSW,251,5.0,10.0,91,-99.99,,,0.03,0.230000,,2013-05-30 11:32:00,
2013-05-30 04:42:00,51.0,48.0,-100.00,WSW,251,5.0,10.0,91,-99.99,,,0.03,0.230000,,2013-05-30 11:42:00,
2013-05-30 04:52:00,51.0,48.0,-100.00,WSW,251,5.0,10.0,91,-99.99,,,0.03,0.230000,,2013-05-30 11:52:00,
2013-05-30 05:01:00,51.0,48.0,30.14,WSW,251,5.0,10.0,91,-99.99,,,0.03,0.230000,,2013-05-30 12:01:00,
2013-05-30 05:11:00,51.0,48.0,30.14,WSW,251,5.0,10.0,91,-99.99,,,0.03,0.230000,,2013-05-30 12:11:00,
2013-05-30 05:42:00,50.0,47.0,30.15,WSW,246,4.0,9.0,88,-99.99,,,0.03,0.460000,,2013-05-30 12:42:00,
2013-05-30 05:52:00,50.0,47.0,30.15,WSW,246,4.0,9.0,88,-99.99,,,0.03,0.460000,,2013-05-30 12:52:00,
2013-05-30 06:01:00,50.0,47.0,30.15,WSW,246,4.0,9.0,88,-99.99,,,0.03,0.460000,,2013-05-30 13:01:00,
2013-05-30 06:11:00,50.0,47.0,30.15,WSW,246,4.0,9.0,88,-99.99,,,0.03,0.460000,,2013-05-30 13:11:00,
2013-05-30 06:42:00,50.0,47.0,30.16,South,179,3.0,7.0,88,-99.99,,,0.03,19.180000,,2013-05-30 13:42:00,
2013-05-30 06:52:00,50.0,47.0,30.16,South,179,3.0,7.0,88,-99.99,,,0.03,19.180000,,2013-05-30 13:52:00,
2013-05-30 07:01:00,50.0,47.0,30.16,South,179,3.0,7.0,88,-99.99,,,0.03,19.180000,,2013-05-30 14:01:00,
2013-05-30 07:11:00,50.0,47.0,30.16,South,179,3.0,7.0,88,-99.99,,,0.03,19.180000,,2013-05-30 14:11:00,
2013-05-30 07:32:00,51.0,47.0,30.17,WSW,241,4.0,8.0,85,-99.99,,,0.03,68.800003,,2013-05-30 14:32:00,
2013-05-30 07:42:00,51.0,47.0,30.17,WSW,241,4.0,8.0,85,-99.99,,,0.03,68.800003,,2013-05-30 14:42:00,
2013-05-30 07:52:00,51.0,47.0,30.17,WSW,241,4.0,8.0,85,-99.99,,,0.03,68.800003,,2013-05-30 14:52:00,
2013-05-30 08:01:00,51.0,47.0,30.17,WSW,241,4.0,8.0,85,-99.99,,,0.03,68.800003,,2013-05-30 15:01:00,
2013-05-30 08:11:00,51.0,47.0,30.17,WSW,241,4.0,8.0,85,-99.99,,,0.03,68.800003,,2013-05-30 15:11:00,
2013-05-30 08:33:00,52.0,48.0,30.19,WSW,250,5.0,11.0,86,-99.99,,,0.03,114.360001,,2013-05-30 15:33:00,
2013-05-30 08:42:00,52.0,48.0,-100.00,WSW,250,5.0,11.0,86,-99.99,,,0.03,114.360001,,2013-05-30 15:42:00,
2013-05-30 08:52:00,52.0,48.0,-100.00,WSW,250,5.0,11.0,86,-99.99,,,0.03,114.360001,,2013-05-30 15:52:00,
2013-05-30 09:03:00,52.0,48.0,-100.00,WSW,250,5.0,11.0,86,-99.99,,,0.03,114.360001,,2013-05-30 16:03:00,
2013-05-30 09:12:00,52.0,48.0,30.19,WSW,250,5.0,11.0,86,-99.99,,,0.03,114.360001,,2013-05-30 16:12:00,
2013-05-30 09:33:00,54.0,49.0,30.20,WSW,247,5.0,13.0,81,-99.99,,,0.02,429.899994,,2013-05-30 16:33:00,
2013-05-30 09:42:00,54.0,49.0,-100.00,WSW,247,5.0,13.0,81,-99.99,,,0.02,429.899994,,2013-05-30 16:42:00,
2013-05-30 09:53:00,54.0,49.0,-100.00,WSW,247,5.0,13.0,81,-99.99,,,0.02,429.899994,,2013-05-30 16:53:00,
2013-05-30 10:02:00,54.0,49.0,30.20,WSW,247,5.0,13.0,81,-99.99,,,0.02,429.899994,,2013-05-30 17:02:00,
2013-05-30 10:11:00,54.0,49.0,30.20,WSW,247,5.0,13.0,81,-99.99,,,0.02,429.899994,,2013-05-30 17:11:00,
2013-05-30 10:32:00,56.0,48.0,30.21,SW,231,5.0,11.0,75,-99.99,,,0.02,332.970001,,2013-05-30 17:32:00,
2013-05-30 10:42:00,56.0,48.0,-100.00,SW,231,5.0,11.0,75,-99.99,,,0.02,332.970001,,2013-05-30 17:42:00,
2013-05-30 10:52:00,56.0,48.0,-100.00,SW,231,5.0,11.0,75,-99.99,,,0.02,332.970001,,2013-05-30 17:52:00,
2013-05-30 11:02:00,56.0,48.0,-100.00,SW,231,5.0,11.0,75,-99.99,,,0.02,332.970001,,2013-05-30 18:02:00,
2013-05-30 11:11:00,56.0,48.0,-100.00,SW,231,5.0,11.0,75,-99.99,,,0.02,332.970001,,2013-05-30 18:11:00,
2013-05-30 11:32:00,56.0,48.0,30.21,SW,236,4.0,10.0,74,-99.99,,,0.02,665.010010,,2013-05-30 18:32:00,
2013-05-30 11:42:00,56.0,48.0,-100.00,SW,236,4.0,10.0,74,-99.99,,,0.02,665.010010,,2013-05-30 18:42:00,
2013-05-30 11:52:00,56.0,48.0,-100.00,SW,236,4.0,10.0,74,-99.99,,,0.02,665.010010,,2013-05-30 18:52:00,
2013-05-30 12:01:00,56.0,48.0,-100.00,SW,236,4.0,10.0,74,-99.99,,,0.02,665.010010,,2013-05-30 19:01:00,
2013-05-30 12:11:00,56.0,48.0,30.21,SW,236,4.0,10.0,74,-99.99,,,0.02,665.010010,,2013-05-30 19:11:00,
2013-05-30 12:32:00,58.0,49.0,30.22,WSW,248,8.0,16.0,70,-99.99,,,0.02,898.380005,,2013-05-30 19:32:00,
2013-05-30 12:42:00,58.0,49.0,-100.00,WSW,248,8.0,16.0,70,-99.99,,,0.02,898.380005,,2013-05-30 19:42:00,
2013-05-30 12:52:00,58.0,49.0,-100.00,WSW,248,8.0,16.0,70,-99.99,,,0.02,898.380005,,2013-05-30 19:52:00,
2013-05-30 13:01:00,58.0,49.0,-100.00,WSW,248,8.0,16.0,70,-99.99,,,0.02,898.380005,,2013-05-30 20:01:00,
2013-05-30 13:11:00,58.0,49.0,30.22,WSW,248,8.0,16.0,70,-99.99,,,0.02,898.380005,,2013-05-30 20:11:00,
2013-05-30 13:33:00,59.0,48.0,30.23,WSW,254,8.0,19.0,66,-99.99,,,0.02,517.409973,,2013-05-30 20:33:00,
2013-05-30 13:42:00,59.0,48.0,-100.00,WSW,254,8.0,19.0,66,-99.99,,,0.02,517.409973,,2013-05-30 20:42:00,
2013-05-30 13:52:00,59.0,48.0,-100.00,WSW,254,8.0,19.0,66,-99.99,,,0.02,517.409973,,2013-05-30 20:52:00,
2013-05-30 14:01:00,59.0,48.0,-100.00,WSW,254,8.0,19.0,66,-99.99,,,0.02,517.409973,,2013-05-30 21:01:00,
2013-05-30 14:11:00,59.0,48.0,-100.00,WSW,254,8.0,19.0,66,-99.99,,,0.02,517.409973,,2013-05-30 21:11:00,
2013-05-30 14:33:00,61.0,48.0,30.23,WSW,240,5.0,10.0,62,-99.99,,,0.02,789.369995,,2013-05-30 21:33:00,
2013-05-30 14:42:00,61.0,48.0,-100.00,WSW,240,5.0,10.0,62,-99.99,,,0.02,789.369995,,2013-05-30 21:42:00,
2013-05-30 14:53:00,61.0,48.0,-100.00,WSW,240,5.0,10.0,62,-99.99,,,0.02,789.369995,,2013-05-30 21:53:00,
2013-05-30 15:02:00,61.0,48.0,-100.00,WSW,240,5.0,10.0,62,-99.99,,,0.02,789.369995,,2013-05-30 22:02:00,
2013-05-30 15:12:00,61.0,48.0,-100.00,WSW,240,5.0,10.0,62,-99.99,,,0.02,789.369995,,2013-05-30 22:12:00,
2013-05-30 15:33:00,63.0,47.0,30.22,WSW,252,6.0,13.0,55,-99.99,,,0.02,899.539978,,2013-05-30 22:33:00,
2013-05-30 15:42:00,63.0,47.0,-100.00,WSW,252,6.0,13.0,55,-99.99,,,0.02,899.539978,,2013-05-30 22:42:00,
2013-05-30 15:52:00,63.0,47.0,30.22,WSW,252,6.0,13.0,55,-99.99,,,0.02,899.539978,,2013-05-30 22:52:00,
2013-05-30 16:02:00,63.0,47.0,30.22,WSW,252,6.0,13.0,55,-99.99,,,0.02,899.539978,,2013-05-30 23:02:00,
2013-05-30 16:11:00,63.0,47.0,30.22,WSW,252,6.0,13.0,55,-99.99,,,0.02,899.539978,,2013-05-30 23:11:00,
2013-05-30 16:31:00,62.0,47.0,30.23,WSW,253,7.0,14.0,58,-99.99,,,0.02,474.640015,,2013-05-30 23:31:00,
2013-05-30 16:41:00,62.0,47.0,-100.00,WSW,253,7.0,14.0,58,-99.99,,,0.02,474.640015,,2013-05-30 23:41:00,
2013-05-30 16:52:00,62.0,47.0,-100.00,WSW,253,7.0,14.0,58,-99.99,,,0.02,474.640015,,2013-05-30 23:52:00,
2013-05-30 17:01:00,62.0,47.0,-100.00,WSW,253,7.0,14.0,58,-99.99,,,0.02,474.640015,,2013-05-31 00:01:00,
2013-05-30 17:11:00,62.0,47.0,-100.00,WSW,253,7.0,14.0,58,-99.99,,,0.02,474.640015,,2013-05-31 00:11:00,
2013-05-30 17:32:00,60.0,48.0,30.23,West,262,7.0,13.0,63,-99.99,,,0.02,304.260010,,2013-05-31 00:32:00,
2013-05-30 17:42:00,60.0,48.0,-100.00,West,262,7.0,13.0,63,-99.99,,,0.02,304.260010,,2013-05-31 00:42:00,
2013-05-30 17:52:00,60.0,48.0,-100.00,West,262,7.0,13.0,63,-99.99,,,0.02,304.260010,,2013-05-31 00:52:00,
2013-05-30 18:01:00,60.0,48.0,-100.00,West,262,7.0,13.0,63,-99.99,,,0.02,304.260010,,2013-05-31 01:01:00,
2013-05-30 18:12:00,60.0,48.0,30.23,West,262,7.0,13.0,63,-99.99,,,0.02,304.260010,,2013-05-31 01:12:00,
2013-05-30 18:32:00,60.0,48.0,30.24,West,260,5.0,11.0,64,-99.99,,,0.02,97.620003,,2013-05-31 01:32:00,
2013-05-30 18:42:00,60.0,48.0,-100.00,West,260,5.0,11.0,64,-99.99,,,0.02,97.620003,,2013-05-31 01:42:00,
2013-05-30 18:52:00,60.0,48.0,-100.00,West,260,5.0,11.0,64,-99.99,,,0.02,97.620003,,2013-05-31 01:52:00,
2013-05-30 19:02:00,60.0,48.0,-100.00,West,260,5.0,11.0,64,-99.99,,,0.02,97.620003,,2013-05-31 02:02:00,
2013-05-30 19:11:00,60.0,48.0,-100.00,West,260,5.0,11.0,64,-99.99,,,0.02,97.620003,,2013-05-31 02:11:00,
2013-05-30 19:32:00,58.0,50.0,30.26,WSW,255,3.0,7.0,74,-99.99,,,0.02,164.919998,,2013-05-31 02:32:00,
2013-05-30 19:41:00,58.0,50.0,-100.00,WSW,255,3.0,7.0,74,-99.99,,,0.02,164.919998,,2013-05-31 02:41:00,
2013-05-30 19:52:00,58.0,50.0,-100.00,WSW,255,3.0,7.0,74,-99.99,,,0.02,164.919998,,2013-05-31 02:52:00,
2013-05-30 20:01:00,58.0,50.0,-100.00,WSW,255,3.0,7.0,74,-99.99,,,0.02,164.919998,,2013-05-31 03:01:00,
2013-05-30 20:11:00,58.0,50.0,-100.00,WSW,255,3.0,7.0,74,-99.99,,,0.02,164.919998,,2013-05-31 03:11:00,
2013-05-30 20:33:00,56.0,52.0,30.26,SW,226,2.0,4.0,85,-99.99,,,0.02,14.410000,,2013-05-31 03:33:00,
2013-05-30 20:43:00,56.0,52.0,-100.00,SW,226,2.0,4.0,85,-99.99,,,0.02,14.410000,,2013-05-31 03:43:00,
2013-05-30 20:53:00,56.0,52.0,-100.00,SW,226,2.0,4.0,85,-99.99,,,0.02,14.410000,,2013-05-31 03:53:00,
2013-05-30 21:02:00,56.0,52.0,-100.00,SW,226,2.0,4.0,85,-99.99,,,0.02,14.410000,,2013-05-31 04:02:00,
2013-05-30 21:12:00,56.0,52.0,-100.00,SW,226,2.0,4.0,85,-99.99,,,0.02,14.410000,,2013-05-31 04:12:00,
2013-05-30 21:32:00,55.0,50.0,30.27,SSE,156,3.0,9.0,82,-99.99,,,0.01,0.230000,,2013-05-31 04:32:00,
2013-05-30 21:42:00,55.0,50.0,-100.00,SSE,156,3.0,9.0,82,-99.99,,,0.01,0.230000,,2013-05-31 04:42:00,
2013-05-30 21:53:00,55.0,50.0,-100.00,SSE,156,3.0,9.0,82,-99.99,,,0.01,0.230000,,2013-05-31 04:53:00,
2013-05-30 22:02:00,55.0,50.0,-100.00,SSE,156,3.0,9.0,82,-99.99,,,0.01,0.230000,,2013-05-31 05:02:00,
2013-05-30 22:12:00,55.0,50.0,-100.00,SSE,156,3.0,9.0,82,-99.99,,,0.01,0.230000,,2013-05-31 05:12:00,
2013-05-30 22:31:00,54.0,49.0,30.29,SSE,161,5.0,11.0,81,-99.99,,,0.00,0.000000,,2013-05-31 05:31:00,
2013-05-30 22:42:00,54.0,49.0,-100.00,SSE,161,5.0,11.0,81,-99.99,,,0.00,0.000000,,2013-05-31 05:42:00,
2013-05-30 22:52:00,54.0,49.0,-100.00,SSE,161,5.0,11.0,81,-99.99,,,0.00,0.000000,,2013-05-31 05:52:00,
2013-05-30 23:01:00,54.0,49.0,-100.00,SSE,161,5.0,11.0,81,-99.99,,,0.00,0.000000,,2013-05-31 06:01:00,
2013-05-30 23:11:00,54.0,49.0,-100.00,SSE,161,5.0,11.0,81,-99.99,,,0.00,0.000000,,2013-05-31 06:11:00,
2013-05-30 23:31:00,54.0,50.0,30.30,WNW,290,2.0,6.0,87,-99.99,,,0.00,0.000000,,2013-05-31 06:31:00,
2013-05-30 23:41:00,54.0,50.0,-100.00,WNW,290,2.0,6.0,87,-99.99,,,0.00,0.000000,,2013-05-31 06:41:00,
2013-05-30 23:52:00,54.0,50.0,-100.00,WNW,290,2.0,6.0,87,-99.99,,,0.00,0.000000,,2013-05-31 06:52:00,